Time,TemperatureF,DewpointF,PressureIn,WindDirection,WindDirectionDegrees,WindSpeedMPH,WindSpeedGustMPH,Humidity,HourlyPrecipIn,Conditions,Clouds,dailyrainin,SoftwareType,DateUTC
2013-08-28 00:04:00,75.7,67.6,30.10,SE,139,2.0,8.0,76,0.00,,,0.00,meteohub,2013-08-28 05:04:00,
2013-08-28 00:09:00,75.7,68.0,30.10,SE,144,2.0,8.0,77,0.00,,,0.00,meteohub,2013-08-28 05:09:00,
2013-08-28 00:14:00,75.6,67.8,30.10,SE,146,0.0,6.0,77,0.00,,,0.00,meteohub,2013-08-28 05:14:00,
2013-08-28 00:19:00,75.6,68.2,30.10,SSW,193,4.0,6.0,78,0.00,,,0.00,meteohub,2013-08-28 05:19:00,
2013-08-28 00:24:00,75.6,68.2,30.10,South,186,3.0,9.0,78,0.00,,,0.00,meteohub,2013-08-28 05:24:00,
2013-08-28 00:29:00,75.6,68.2,30.10,SSE,149,2.0,9.0,78,0.00,,,0.00,meteohub,2013-08-28 05:29:00,
2013-08-28 00:34:00,75.4,68.4,30.10,SSW,194,1.0,9.0,79,0.00,,,0.00,meteohub,2013-08-28 05:34:00,
2013-08-28 00:39:00,75.4,68.4,30.10,WSW,239,3.0,6.0,79,0.00,,,0.00,meteohub,2013-08-28 05:39:00,
2013-08-28 00:44:00,75.2,68.5,30.10,SE,142,1.0,8.0,80,0.00,,,0.00,meteohub,2013-08-28 05:44:00,
2013-08-28 00:49:00,75.0,68.4,30.10,SSW,197,1.0,8.0,80,0.00,,,0.00,meteohub,2013-08-28 05:49:00,
2013-08-28 00:54:00,75.0,68.4,30.10,SSE,166,1.0,8.0,80,0.00,,,0.00,meteohub,2013-08-28 05:54:00,
2013-08-28 00:59:00,74.8,68.5,30.10,SSE,160,1.0,6.0,81,0.00,,,0.00,meteohub,2013-08-28 05:59:00,
2013-08-28 01:04:00,74.8,68.5,30.10,SSW,201,2.0,5.0,81,0.00,,,0.00,meteohub,2013-08-28 06:04:00,
2013-08-28 01:09:00,74.7,68.4,30.10,SE,146,1.0,5.0,81,0.00,,,0.00,meteohub,2013-08-28 06:09:00,
2013-08-28 01:15:00,74.7,68.7,30.10,SSE,149,5.0,7.0,82,0.00,,,0.00,meteohub,2013-08-28 06:15:00,
2013-08-28 01:20:00,74.5,68.5,30.10,SSE,149,5.0,7.0,82,0.00,,,0.00,meteohub,2013-08-28 06:20:00,
2013-08-28 01:25:00,74.5,68.5,30.10,SW,214,2.0,6.0,82,0.00,,,0.00,meteohub,2013-08-28 06:25:00,
2013-08-28 01:30:00,74.3,68.7,30.10,SSE,152,4.0,6.0,83,0.00,,,0.00,meteohub,2013-08-28 06:30:00,
2013-08-28 01:35:00,74.3,68.7,30.10,SW,218,2.0,7.0,83,0.00,,,0.00,meteohub,2013-08-28 06:35:00,
2013-08-28 01:40:00,74.3,68.7,30.10,SE,135,1.0,7.0,83,0.00,,,0.00,meteohub,2013-08-28 06:40:00,
2013-08-28 01:45:00,74.1,68.5,30.09,SSE,158,3.0,8.0,83,0.00,,,0.00,meteohub,2013-08-28 06:45:00,
2013-08-28 01:50:00,74.1,68.5,30.09,SSE,155,4.0,8.0,83,0.00,,,0.00,meteohub,2013-08-28 06:50:00,
2013-08-28 01:55:00,74.1,68.9,30.09,South,188,2.0,6.0,84,0.00,,,0.00,meteohub,2013-08-28 06:55:00,
2013-08-28 02:00:00,74.1,68.9,30.09,South,188,1.0,8.0,84,0.00,,,0.00,meteohub,2013-08-28 07:00:00,
2013-08-28 02:05:00,73.9,68.7,30.09,South,177,6.0,8.0,84,0.00,,,0.00,meteohub,2013-08-28 07:05:00,
2013-08-28 02:10:00,73.9,68.7,30.09,SSE,152,4.0,8.0,84,0.00,,,0.00,meteohub,2013-08-28 07:10:00,
2013-08-28 02:15:00,73.8,68.5,30.09,West,274,2.0,8.0,84,0.00,,,0.00,meteohub,2013-08-28 07:15:00,
2013-08-28 02:20:00,73.8,68.9,30.09,SSW,192,5.0,8.0,85,0.00,,,0.00,meteohub,2013-08-28 07:20:00,
2013-08-28 02:25:00,73.6,68.7,30.08,SSW,212,1.0,8.0,85,0.00,,,0.00,meteohub,2013-08-28 07:25:00,
2013-08-28 02:30:00,73.2,68.7,30.09,SE,139,2.0,8.0,86,0.00,,,0.00,meteohub,2013-08-28 07:30:00,
2013-08-28 02:35:00,73.0,68.5,30.09,SSW,199,3.0,8.0,86,0.00,,,0.00,meteohub,2013-08-28 07:35:00,
2013-08-28 02:40:00,73.0,68.5,30.09,South,191,4.0,8.0,86,0.00,,,0.00,meteohub,2013-08-28 07:40:00,
2013-08-28 02:45:00,72.9,68.4,30.09,SSW,203,4.0,7.0,86,0.00,,,0.00,meteohub,2013-08-28 07:45:00,
2013-08-28 02:50:00,72.7,68.5,30.09,South,172,6.0,8.0,87,0.00,,,0.00,meteohub,2013-08-28 07:50:00,
2013-08-28 02:55:00,72.7,68.5,30.09,SSE,155,6.0,9.0,87,0.00,,,0.00,meteohub,2013-08-28 07:55:00,
2013-08-28 03:00:00,72.7,68.5,30.08,SE,127,0.0,9.0,87,0.00,,,0.00,meteohub,2013-08-28 08:00:00,
2013-08-28 03:05:00,72.7,68.5,30.09,SE,141,2.0,8.0,87,0.00,,,0.00,meteohub,2013-08-28 08:05:00,
2013-08-28 03:10:00,72.5,68.4,30.09,SSW,200,3.0,7.0,87,0.00,,,0.00,meteohub,2013-08-28 08:10:00,
2013-08-28 03:15:00,72.5,68.4,30.09,SSE,158,1.0,6.0,87,0.00,,,0.00,meteohub,2013-08-28 08:15:00,
2013-08-28 03:20:00,72.3,68.2,30.09,SSW,195,1.0,5.0,87,0.00,,,0.00,meteohub,2013-08-28 08:20:00,
2013-08-28 03:25:00,72.3,68.2,30.09,SW,220,0.0,5.0,87,0.00,,,0.00,meteohub,2013-08-28 08:25:00,
2013-08-28 03:30:00,72.3,68.2,30.09,ESE,117,0.0,4.0,87,0.00,,,0.00,meteohub,2013-08-28 08:30:00,
2013-08-28 03:35:00,72.1,68.4,30.09,SSE,153,0.0,4.0,88,0.00,,,0.00,meteohub,2013-08-28 08:35:00,
2013-08-28 03:40:00,72.0,68.2,30.09,SSE,160,1.0,3.0,88,0.00,,,0.00,meteohub,2013-08-28 08:40:00,
2013-08-28 03:45:00,72.0,68.2,30.10,SE,146,1.0,3.0,88,0.00,,,0.00,meteohub,2013-08-28 08:45:00,
2013-08-28 03:50:00,72.0,68.2,30.10,SW,214,1.0,3.0,88,0.00,,,0.00,meteohub,2013-08-28 08:50:00,
2013-08-28 03:55:00,72.0,68.2,30.10,SSE,163,0.0,3.0,88,0.00,,,0.00,meteohub,2013-08-28 08:55:00,
2013-08-28 04:00:00,71.8,68.0,30.09,SE,146,0.0,3.0,88,0.00,,,0.00,meteohub,2013-08-28 09:00:00,
2013-08-28 04:05:00,71.8,68.0,30.09,SSE,152,0.0,3.0,88,0.00,,,0.00,meteohub,2013-08-28 09:05:00,
2013-08-28 04:10:00,71.8,68.4,30.09,SSE,149,1.0,1.0,89,0.00,,,0.00,meteohub,2013-08-28 09:10:00,
2013-08-28 04:15:00,71.6,68.2,30.09,SSE,165,1.0,2.0,89,0.00,,,0.00,meteohub,2013-08-28 09:15:00,
2013-08-28 04:20:00,71.4,68.0,30.09,SE,145,1.0,2.0,89,0.00,,,0.00,meteohub,2013-08-28 09:20:00,
2013-08-28 04:25:00,71.4,68.0,30.09,SE,143,0.0,2.0,89,0.00,,,0.00,meteohub,2013-08-28 09:25:00,
2013-08-28 04:30:00,71.4,68.0,30.10,SSE,162,1.0,2.0,89,0.00,,,0.00,meteohub,2013-08-28 09:30:00,
2013-08-28 04:33:00,71.4,68.0,30.09,SSE,153,1.0,2.0,89,0.00,,,0.00,meteohub,2013-08-28 09:33:00,
2013-08-28 04:38:00,71.4,68.0,30.09,SE,132,1.0,2.0,89,0.00,,,0.00,meteohub,2013-08-28 09:38:00,
2013-08-28 04:43:00,71.2,67.8,30.09,SSE,153,1.0,2.0,89,0.00,,,0.00,meteohub,2013-08-28 09:43:00,
2013-08-28 04:49:00,71.2,67.8,30.09,SE,134,2.0,2.0,89,0.00,,,0.00,meteohub,2013-08-28 09:49:00,
2013-08-28 04:54:00,71.2,67.8,30.09,SE,138,1.0,2.0,89,0.00,,,0.00,meteohub,2013-08-28 09:54:00,
2013-08-28 04:59:00,71.1,68.0,30.09,ESE,121,1.0,3.0,90,0.00,,,0.00,meteohub,2013-08-28 09:59:00,
2013-08-28 05:04:00,71.1,68.0,30.09,ESE,118,0.0,2.0,90,0.00,,,0.00,meteohub,2013-08-28 10:04:00,
2013-08-28 05:09:00,71.1,68.0,30.09,SSE,149,0.0,3.0,90,0.00,,,0.00,meteohub,2013-08-28 10:09:00,
2013-08-28 05:14:00,71.1,68.0,30.09,SSE,155,0.0,3.0,90,0.00,,,0.00,meteohub,2013-08-28 10:14:00,
2013-08-28 05:19:00,71.1,68.0,30.10,South,174,1.0,4.0,90,0.00,,,0.00,meteohub,2013-08-28 10:19:00,
2013-08-28 05:24:00,71.1,68.0,30.10,SSE,155,2.0,4.0,90,0.00,,,0.00,meteohub,2013-08-28 10:24:00,
2013-08-28 05:29:00,71.1,68.0,30.10,SE,139,1.0,4.0,90,0.00,,,0.00,meteohub,2013-08-28 10:29:00,
2013-08-28 05:34:00,71.1,68.0,30.10,SE,141,0.0,3.0,90,0.00,,,0.00,meteohub,2013-08-28 10:34:00,
2013-08-28 05:39:00,71.1,68.0,30.10,SE,131,0.0,3.0,90,0.00,,,0.00,meteohub,2013-08-28 10:39:00,
2013-08-28 05:44:00,71.1,68.0,30.10,SE,146,0.0,3.0,90,0.00,,,0.00,meteohub,2013-08-28 10:44:00,
2013-08-28 05:49:00,71.1,68.0,30.11,SE,127,0.0,3.0,90,0.00,,,0.00,meteohub,2013-08-28 10:49:00,
2013-08-28 05:54:00,70.9,67.8,30.11,SSE,149,2.0,3.0,90,0.00,,,0.00,meteohub,2013-08-28 10:54:00,
2013-08-28 05:59:00,70.9,67.8,30.11,SE,140,2.0,3.0,90,0.00,,,0.00,meteohub,2013-08-28 10:59:00,
2013-08-28 06:04:00,70.9,67.8,30.10,SSE,149,1.0,4.0,90,0.00,,,0.00,meteohub,2013-08-28 11:04:00,
2013-08-28 06:09:00,70.9,67.8,30.11,SE,134,3.0,4.0,90,0.00,,,0.00,meteohub,2013-08-28 11:09:00,
2013-08-28 06:14:00,70.9,67.8,30.11,WSW,257,2.0,6.0,90,0.00,,,0.00,meteohub,2013-08-28 11:14:00,
2013-08-28 06:19:00,70.9,67.8,30.11,South,169,3.0,6.0,90,0.00,,,0.00,meteohub,2013-08-28 11:19:00,
2013-08-28 06:24:00,70.9,67.8,30.11,SSE,148,3.0,6.0,90,0.00,,,0.00,meteohub,2013-08-28 11:24:00,
2013-08-28 06:29:00,70.9,67.8,30.11,SSE,149,2.0,6.0,90,0.00,,,0.00,meteohub,2013-08-28 11:29:00,
2013-08-28 06:34:00,70.9,67.8,30.11,SSE,159,7.0,7.0,90,0.00,,,0.00,meteohub,2013-08-28 11:34:00,
2013-08-28 06:39:00,70.9,67.8,30.11,SSE,149,5.0,7.0,90,0.00,,,0.00,meteohub,2013-08-28 11:39:00,
2013-08-28 06:44:00,70.7,67.6,30.11,ESE,121,5.0,7.0,90,0.00,,,0.00,meteohub,2013-08-28 11:44:00,
2013-08-28 06:49:00,70.5,67.5,30.11,ESE,121,2.0,7.0,90,0.00,,,0.00,meteohub,2013-08-28 11:49:00,
2013-08-28 06:54:00,70.5,67.5,30.11,SE,129,2.0,6.0,90,0.00,,,0.00,meteohub,2013-08-28 11:54:00,
2013-08-28 06:59:00,70.3,67.6,30.11,SE,142,2.0,6.0,91,0.00,,,0.00,meteohub,2013-08-28 11:59:00,
2013-08-28 07:04:00,70.3,67.6,30.11,SSE,158,2.0,6.0,91,0.00,,,0.00,meteohub,2013-08-28 12:04:00,
2013-08-28 07:09:00,70.5,67.8,30.11,South,169,1.0,5.0,91,0.00,,,0.00,meteohub,2013-08-28 12:09:00,
2013-08-28 07:14:00,70.9,67.8,30.12,SSE,153,3.0,6.0,90,0.00,,,0.00,meteohub,2013-08-28 12:14:00,
2013-08-28 07:19:00,71.1,68.0,30.12,ESE,112,3.0,6.0,90,0.00,,,0.00,meteohub,2013-08-28 12:19:00,
2013-08-28 07:24:00,71.4,68.0,30.11,SSE,158,2.0,6.0,89,0.00,,,0.00,meteohub,2013-08-28 12:24:00,
2013-08-28 07:29:00,71.8,68.0,30.11,SE,146,3.0,6.0,88,0.00,,,0.00,meteohub,2013-08-28 12:29:00,
2013-08-28 07:34:00,72.1,68.4,30.12,SE,127,0.0,6.0,88,0.00,,,0.00,meteohub,2013-08-28 12:34:00,
2013-08-28 07:40:00,72.5,68.4,30.12,SSE,156,4.0,6.0,87,0.00,,,0.00,meteohub,2013-08-28 12:40:00,
2013-08-28 07:45:00,72.9,68.4,30.12,South,191,2.0,6.0,86,0.00,,,0.00,meteohub,2013-08-28 12:45:00,
2013-08-28 07:50:00,73.2,68.7,30.11,SSE,155,2.0,6.0,86,0.00,,,0.00,meteohub,2013-08-28 12:50:00,
2013-08-28 07:55:00,73.6,68.7,30.11,South,174,3.0,5.0,85,0.00,,,0.00,meteohub,2013-08-28 12:55:00,
2013-08-28 08:00:00,73.8,68.9,30.12,SE,136,4.0,5.0,85,0.00,,,0.00,meteohub,2013-08-28 13:00:00,
2013-08-28 08:05:00,74.1,68.9,30.12,SE,134,5.0,6.0,84,0.00,,,0.00,meteohub,2013-08-28 13:05:00,
2013-08-28 08:10:00,74.1,68.5,30.12,South,169,3.0,6.0,83,0.00,,,0.00,meteohub,2013-08-28 13:10:00,
2013-08-28 08:15:00,74.7,69.1,30.12,SE,131,3.0,8.0,83,0.00,,,0.00,meteohub,2013-08-28 13:15:00,
2013-08-28 08:20:00,74.8,68.9,30.12,East,89,1.0,8.0,82,0.00,,,0.00,meteohub,2013-08-28 13:20:00,
2013-08-28 08:25:00,75.0,69.1,30.12,SSE,153,5.0,7.0,82,0.00,,,0.00,meteohub,2013-08-28 13:25:00,
2013-08-28 08:30:00,75.2,69.3,30.12,SSE,155,6.0,9.0,82,0.00,,,0.00,meteohub,2013-08-28 13:30:00,
2013-08-28 08:35:00,75.6,69.3,30.12,SE,127,2.0,9.0,81,0.00,,,0.00,meteohub,2013-08-28 13:35:00,
2013-08-28 08:40:00,75.9,69.3,30.12,South,184,5.0,9.0,80,0.00,,,0.00,meteohub,2013-08-28 13:40:00,
2013-08-28 08:45:00,76.6,69.6,30.12,SE,145,4.0,8.0,79,0.00,,,0.00,meteohub,2013-08-28 13:45:00,
2013-08-28 08:50:00,76.6,69.3,30.12,South,190,2.0,8.0,78,0.00,,,0.00,meteohub,2013-08-28 13:50:00,
2013-08-28 08:55:00,77.0,69.6,30.12,ESE,120,3.0,9.0,78,0.00,,,0.00,meteohub,2013-08-28 13:55:00,
2013-08-28 09:00:00,77.4,69.6,30.12,SSE,158,4.0,9.0,77,0.00,,,0.00,meteohub,2013-08-28 14:00:00,
2013-08-28 09:05:00,77.5,69.8,30.12,SSE,150,2.0,9.0,77,0.00,,,0.00,meteohub,2013-08-28 14:05:00,
2013-08-28 09:10:00,77.5,69.8,30.12,SSW,197,2.0,9.0,77,0.00,,,0.00,meteohub,2013-08-28 14:10:00,
2013-08-28 09:15:00,78.1,70.0,30.12,SW,221,4.0,10.0,76,0.00,,,0.00,meteohub,2013-08-28 14:15:00,
2013-08-28 09:20:00,78.6,70.3,30.12,SE,137,3.0,10.0,76,0.00,,,0.00,meteohub,2013-08-28 14:20:00,
2013-08-28 09:25:00,78.6,70.0,30.12,SSE,164,3.0,10.0,75,0.00,,,0.00,meteohub,2013-08-28 14:25:00,
2013-08-28 09:30:00,79.2,70.5,30.12,South,177,7.0,8.0,75,0.00,,,0.00,meteohub,2013-08-28 14:30:00,
2013-08-28 09:35:00,79.2,70.2,30.12,SSE,166,5.0,10.0,74,0.00,,,0.00,meteohub,2013-08-28 14:35:00,
2013-08-28 09:40:00,79.2,70.2,30.12,SSW,199,5.0,12.0,74,0.00,,,0.00,meteohub,2013-08-28 14:40:00,
2013-08-28 09:45:00,79.3,70.0,30.12,SW,231,7.0,12.0,73,0.00,,,0.00,meteohub,2013-08-28 14:45:00,
2013-08-28 09:50:00,79.3,70.3,30.12,SW,236,1.0,12.0,74,0.00,,,0.00,meteohub,2013-08-28 14:50:00,
2013-08-28 09:55:00,79.5,70.2,30.12,SSE,149,2.0,10.0,73,0.00,,,0.00,meteohub,2013-08-28 14:55:00,
2013-08-28 10:00:00,79.9,70.5,30.12,SSE,153,8.0,10.0,73,0.00,,,0.00,meteohub,2013-08-28 15:00:00,
2013-08-28 10:05:00,80.2,70.3,30.12,SW,226,4.0,10.0,72,0.00,,,0.00,meteohub,2013-08-28 15:05:00,
2013-08-28 10:10:00,81.0,70.2,30.12,SSW,203,6.0,10.0,70,0.00,,,0.00,meteohub,2013-08-28 15:10:00,
2013-08-28 10:15:00,81.9,70.7,30.12,SW,224,3.0,10.0,69,0.00,,,0.00,meteohub,2013-08-28 15:15:00,
2013-08-28 10:20:00,82.2,70.2,30.12,SSE,165,5.0,10.0,67,0.00,,,0.00,meteohub,2013-08-28 15:20:00,
2013-08-28 10:25:00,82.0,70.3,30.12,SW,214,6.0,11.0,68,0.00,,,0.00,meteohub,2013-08-28 15:25:00,
2013-08-28 10:30:00,82.8,70.7,30.12,SE,127,2.0,12.0,67,0.00,,,0.00,meteohub,2013-08-28 15:30:00,
2013-08-28 10:35:00,83.3,70.3,30.12,SW,215,2.0,12.0,65,0.00,,,0.00,meteohub,2013-08-28 15:35:00,
2013-08-28 10:40:00,83.7,70.2,30.12,SW,222,8.0,12.0,64,0.00,,,0.00,meteohub,2013-08-28 15:40:00,
2013-08-28 10:45:00,83.8,70.0,30.12,SE,142,6.0,13.0,63,0.00,,,0.00,meteohub,2013-08-28 15:45:00,
2013-08-28 10:50:00,83.8,70.0,30.12,SSE,160,7.0,13.0,63,0.00,,,0.00,meteohub,2013-08-28 15:50:00,
2013-08-28 10:55:00,84.0,69.1,30.12,SW,226,12.0,13.0,61,0.00,,,0.00,meteohub,2013-08-28 15:55:00,
2013-08-28 11:00:00,84.4,70.0,30.12,WSW,248,10.0,15.0,62,0.00,,,0.00,meteohub,2013-08-28 16:00:00,
2013-08-28 11:05:00,84.7,69.3,30.12,SSE,148,6.0,15.0,60,0.00,,,0.00,meteohub,2013-08-28 16:05:00,
2013-08-28 11:10:00,84.6,69.6,30.13,SW,231,5.0,15.0,61,0.00,,,0.00,meteohub,2013-08-28 16:10:00,
2013-08-28 11:15:00,84.6,70.2,30.13,SSE,158,5.0,13.0,62,0.00,,,0.00,meteohub,2013-08-28 16:15:00,
2013-08-28 11:20:00,84.9,69.4,30.12,SW,225,8.0,12.0,60,0.00,,,0.00,meteohub,2013-08-28 16:20:00,
2013-08-28 11:25:00,84.4,68.9,30.12,South,175,11.0,12.0,60,0.00,,,0.00,meteohub,2013-08-28 16:25:00,
2013-08-28 11:30:00,84.4,69.4,30.12,SSW,206,5.0,15.0,61,0.00,,,0.00,meteohub,2013-08-28 16:30:00,
2013-08-28 11:35:00,84.7,69.3,30.12,WSW,245,6.0,15.0,60,0.00,,,0.00,meteohub,2013-08-28 16:35:00,
2013-08-28 11:40:00,84.7,69.3,30.12,SSW,203,4.0,14.0,60,0.00,,,0.00,meteohub,2013-08-28 16:40:00,
2013-08-28 11:45:00,84.6,69.1,30.12,SW,215,6.0,13.0,60,0.00,,,0.00,meteohub,2013-08-28 16:45:00,
2013-08-28 11:50:00,84.4,69.4,30.12,SSE,152,8.0,13.0,61,0.00,,,0.00,meteohub,2013-08-28 16:50:00,
2013-08-28 11:55:00,84.4,69.4,30.12,ESE,113,6.0,13.0,61,0.00,,,0.00,meteohub,2013-08-28 16:55:00,
2013-08-28 12:01:00,84.4,69.4,30.13,SW,236,3.0,11.0,61,0.00,,,0.00,meteohub,2013-08-28 17:01:00,
2013-08-28 12:06:00,84.7,69.3,30.12,SSW,203,10.0,11.0,60,0.00,,,0.00,meteohub,2013-08-28 17:06:00,
2013-08-28 12:11:00,84.4,68.9,30.12,SSW,207,3.0,12.0,60,0.00,,,0.00,meteohub,2013-08-28 17:11:00,
2013-08-28 12:16:00,84.7,69.8,30.12,South,181,6.0,12.0,61,0.00,,,0.00,meteohub,2013-08-28 17:16:00,
2013-08-28 12:21:00,86.0,69.4,30.12,SW,229,7.0,12.0,58,0.00,,,0.00,meteohub,2013-08-28 17:21:00,
2013-08-28 12:26:00,86.5,69.4,30.12,SSW,197,4.0,12.0,57,0.00,,,0.00,meteohub,2013-08-28 17:26:00,
2013-08-28 12:31:00,87.1,69.4,30.12,SSE,166,2.0,13.0,56,0.00,,,0.00,meteohub,2013-08-28 17:31:00,
2013-08-28 12:36:00,87.6,69.4,30.12,SW,221,11.0,13.0,55,0.00,,,0.00,meteohub,2013-08-28 17:36:00,
2013-08-28 12:41:00,87.1,69.4,30.12,SSW,198,5.0,14.0,56,0.00,,,0.00,meteohub,2013-08-28 17:41:00,
2013-08-28 12:46:00,87.1,68.9,30.12,South,169,5.0,14.0,55,0.00,,,0.00,meteohub,2013-08-28 17:46:00,
2013-08-28 12:51:00,86.7,68.5,30.12,SSW,200,8.0,13.0,55,0.00,,,0.00,meteohub,2013-08-28 17:51:00,
2013-08-28 12:56:00,86.4,69.3,30.11,SW,236,6.0,13.0,57,0.00,,,0.00,meteohub,2013-08-28 17:56:00,
2013-08-28 13:01:00,86.5,68.9,30.11,SW,214,5.0,14.0,56,0.00,,,0.00,meteohub,2013-08-28 18:01:00,
2013-08-28 13:06:00,86.5,69.4,30.11,SW,226,11.0,14.0,57,0.00,,,0.00,meteohub,2013-08-28 18:06:00,
2013-08-28 13:11:00,86.5,70.0,30.11,South,170,3.0,14.0,58,0.00,,,0.00,meteohub,2013-08-28 18:11:00,
2013-08-28 13:16:00,86.9,68.7,30.11,SW,218,6.0,12.0,55,0.00,,,0.00,meteohub,2013-08-28 18:16:00,
2013-08-28 13:21:00,87.3,68.5,30.11,SSE,158,5.0,12.0,54,0.00,,,0.00,meteohub,2013-08-28 18:21:00,
2013-08-28 13:26:00,87.3,69.1,30.11,ESE,115,5.0,12.0,55,0.00,,,0.00,meteohub,2013-08-28 18:26:00,
2013-08-28 13:31:00,88.0,69.3,30.11,SW,236,2.0,13.0,54,0.00,,,0.00,meteohub,2013-08-28 18:31:00,
2013-08-28 13:36:00,88.0,68.7,30.11,South,177,7.0,13.0,53,0.00,,,0.00,meteohub,2013-08-28 18:36:00,
2013-08-28 13:41:00,88.2,68.9,30.10,ESE,121,5.0,13.0,53,0.00,,,0.00,meteohub,2013-08-28 18:41:00,
2013-08-28 13:46:00,88.5,69.3,30.10,South,174,4.0,13.0,53,0.00,,,0.00,meteohub,2013-08-28 18:46:00,
2013-08-28 13:51:00,88.5,68.7,30.10,SSW,207,4.0,15.0,52,0.00,,,0.00,meteohub,2013-08-28 18:51:00,
2013-08-28 13:56:00,88.5,68.7,30.10,SSW,195,6.0,15.0,52,0.00,,,0.00,meteohub,2013-08-28 18:56:00,
2013-08-28 14:01:00,89.1,69.6,30.10,SSE,150,5.0,12.0,53,0.00,,,0.00,meteohub,2013-08-28 19:01:00,
2013-08-28 14:06:00,88.9,68.9,30.10,SSW,207,10.0,12.0,52,0.00,,,0.00,meteohub,2013-08-28 19:06:00,
2013-08-28 14:11:00,88.9,68.9,30.10,SSE,160,2.0,12.0,52,0.00,,,0.00,meteohub,2013-08-28 19:11:00,
2013-08-28 14:16:00,89.4,70.0,30.10,SE,134,3.0,12.0,53,0.00,,,0.00,meteohub,2013-08-28 19:16:00,
2013-08-28 14:21:00,90.3,69.1,30.10,WSW,242,10.0,10.0,50,0.00,,,0.00,meteohub,2013-08-28 19:21:00,
2013-08-28 14:26:00,89.4,69.4,30.10,South,188,8.0,10.0,52,0.00,,,0.00,meteohub,2013-08-28 19:26:00,
2013-08-28 14:31:00,89.1,69.6,30.10,SSW,205,4.0,12.0,53,0.00,,,0.00,meteohub,2013-08-28 19:31:00,
2013-08-28 14:36:00,88.9,68.9,30.09,SSE,165,7.0,12.0,52,0.00,,,0.00,meteohub,2013-08-28 19:36:00,
2013-08-28 14:41:00,89.1,70.2,30.09,SSE,153,7.0,11.0,54,0.00,,,0.00,meteohub,2013-08-28 19:41:00,
2013-08-28 14:46:00,89.6,69.6,30.09,South,186,7.0,11.0,52,0.00,,,0.00,meteohub,2013-08-28 19:46:00,
2013-08-28 14:51:00,90.1,68.9,30.09,SW,232,5.0,14.0,50,0.00,,,0.00,meteohub,2013-08-28 19:51:00,
2013-08-28 14:56:00,90.3,69.8,30.09,SE,145,7.0,14.0,51,0.00,,,0.00,meteohub,2013-08-28 19:56:00,
2013-08-28 15:01:00,90.7,69.4,30.09,SSE,153,6.0,14.0,50,0.00,,,0.00,meteohub,2013-08-28 20:01:00,
2013-08-28 15:06:00,90.9,69.6,30.09,East,101,3.0,10.0,50,0.00,,,0.00,meteohub,2013-08-28 20:06:00,
2013-08-28 15:11:00,90.7,70.0,30.08,WSW,240,9.0,11.0,51,0.00,,,0.00,meteohub,2013-08-28 20:11:00,
2013-08-28 15:16:00,90.1,70.2,30.08,SW,226,11.0,13.0,52,0.00,,,0.00,meteohub,2013-08-28 20:16:00,
2013-08-28 15:21:00,90.9,70.2,30.08,SW,221,12.0,15.0,51,0.00,,,0.00,meteohub,2013-08-28 20:21:00,
2013-08-28 15:26:00,91.0,70.3,30.08,WSW,257,3.0,15.0,51,0.00,,,0.00,meteohub,2013-08-28 20:26:00,
2013-08-28 15:31:00,90.5,70.5,30.08,SE,145,3.0,15.0,52,0.00,,,0.00,meteohub,2013-08-28 20:31:00,
2013-08-28 15:36:00,90.7,70.0,30.08,SE,139,1.0,13.0,51,0.00,,,0.00,meteohub,2013-08-28 20:36:00,
2013-08-28 15:41:00,90.9,70.2,30.08,SSE,164,3.0,13.0,51,0.00,,,0.00,meteohub,2013-08-28 20:41:00,
2013-08-28 15:46:00,90.9,69.6,30.07,SSW,197,5.0,9.0,50,0.00,,,0.00,meteohub,2013-08-28 20:46:00,
2013-08-28 15:51:00,90.9,69.6,30.07,SSE,152,5.0,13.0,50,0.00,,,0.00,meteohub,2013-08-28 20:51:00,
2013-08-28 15:56:00,90.3,70.3,30.07,SE,135,4.0,13.0,52,0.00,,,0.00,meteohub,2013-08-28 20:56:00,
2013-08-28 16:01:00,89.8,69.8,30.07,ESE,110,8.0,13.0,52,0.00,,,0.00,meteohub,2013-08-28 21:01:00,
2013-08-28 16:06:00,90.1,70.2,30.07,SE,143,4.0,15.0,52,0.00,,,0.00,meteohub,2013-08-28 21:06:00,
2013-08-28 16:11:00,91.0,70.3,30.07,SSE,152,7.0,15.0,51,0.00,,,0.00,meteohub,2013-08-28 21:11:00,
2013-08-28 16:16:00,91.6,69.8,30.07,SSE,148,6.0,14.0,49,0.00,,,0.00,meteohub,2013-08-28 21:16:00,
2013-08-28 16:22:00,91.2,70.0,30.06,SE,146,9.0,14.0,50,0.00,,,0.00,meteohub,2013-08-28 21:22:00,
2013-08-28 16:27:00,91.6,70.3,30.06,SW,228,6.0,12.0,50,0.00,,,0.00,meteohub,2013-08-28 21:27:00,
2013-08-28 16:32:00,91.2,69.4,30.06,SE,139,3.0,12.0,49,0.00,,,0.00,meteohub,2013-08-28 21:32:00,
2013-08-28 16:37:00,91.6,69.8,30.06,SW,217,5.0,10.0,49,0.00,,,0.00,meteohub,2013-08-28 21:37:00,
2013-08-28 16:42:00,91.6,70.3,30.06,SW,226,2.0,11.0,50,0.00,,,0.00,meteohub,2013-08-28 21:42:00,
2013-08-28 16:47:00,91.9,69.4,30.06,SSW,210,5.0,11.0,48,0.00,,,0.00,meteohub,2013-08-28 21:47:00,
2013-08-28 16:52:00,91.8,69.8,30.06,SE,143,3.0,11.0,49,0.00,,,0.00,meteohub,2013-08-28 21:52:00,
2013-08-28 16:57:00,91.2,69.4,30.06,South,191,2.0,10.0,49,0.00,,,0.00,meteohub,2013-08-28 21:57:00,
2013-08-28 17:02:00,91.2,70.0,30.06,South,191,2.0,10.0,50,0.00,,,0.00,meteohub,2013-08-28 22:02:00,
2013-08-28 17:07:00,90.3,70.3,30.06,East,96,13.0,17.0,52,0.00,,,0.00,meteohub,2013-08-28 22:07:00,
2013-08-28 17:12:00,89.4,70.5,30.06,SSE,155,9.0,17.0,54,0.00,,,0.00,meteohub,2013-08-28 22:12:00,
2013-08-28 17:17:00,90.0,70.5,30.06,South,179,4.0,17.0,53,0.00,,,0.00,meteohub,2013-08-28 22:17:00,
2013-08-28 17:22:00,90.3,70.9,30.06,SSE,166,4.0,15.0,53,0.00,,,0.00,meteohub,2013-08-28 22:22:00,
2013-08-28 17:27:00,90.3,70.9,30.06,SE,128,6.0,15.0,53,0.00,,,0.00,meteohub,2013-08-28 22:27:00,
2013-08-28 17:32:00,90.3,70.3,30.06,SSE,162,4.0,12.0,52,0.00,,,0.00,meteohub,2013-08-28 22:32:00,
2013-08-28 17:37:00,90.3,70.3,30.06,SSE,158,7.0,12.0,52,0.00,,,0.00,meteohub,2013-08-28 22:37:00,
2013-08-28 17:42:00,90.5,70.5,30.06,South,177,3.0,12.0,52,0.00,,,0.00,meteohub,2013-08-28 22:42:00,
2013-08-28 17:47:00,90.9,70.9,30.06,SSE,158,2.0,10.0,52,0.00,,,0.00,meteohub,2013-08-28 22:47:00,
2013-08-28 17:52:00,91.2,71.1,30.06,SE,129,7.0,10.0,52,0.00,,,0.00,meteohub,2013-08-28 22:52:00,
2013-08-28 17:57:00,91.0,70.9,30.06,SSE,155,4.0,11.0,52,0.00,,,0.00,meteohub,2013-08-28 22:57:00,
2013-08-28 18:02:00,90.9,70.9,30.06,SE,136,6.0,13.0,52,0.00,,,0.00,meteohub,2013-08-28 23:02:00,
2013-08-28 18:07:00,90.9,70.9,30.06,SE,146,2.0,13.0,52,0.00,,,0.00,meteohub,2013-08-28 23:07:00,
2013-08-28 18:12:00,90.7,70.0,30.06,SE,138,5.0,13.0,51,0.00,,,0.00,meteohub,2013-08-28 23:12:00,
2013-08-28 18:17:00,90.3,70.3,30.06,SE,132,4.0,12.0,52,0.00,,,0.00,meteohub,2013-08-28 23:17:00,
2013-08-28 18:22:00,90.5,70.5,30.06,SE,142,5.0,12.0,52,0.00,,,0.00,meteohub,2013-08-28 23:22:00,
2013-08-28 18:27:00,90.9,70.9,30.06,SSW,200,2.0,12.0,52,0.00,,,0.00,meteohub,2013-08-28 23:27:00,
2013-08-28 18:32:00,91.4,70.7,30.06,SE,141,3.0,10.0,51,0.00,,,0.00,meteohub,2013-08-28 23:32:00,
2013-08-28 18:37:00,91.6,70.9,30.05,SE,136,5.0,10.0,51,0.00,,,0.00,meteohub,2013-08-28 23:37:00,
2013-08-28 18:42:00,90.9,70.2,30.06,SE,124,9.0,12.0,51,0.00,,,0.00,meteohub,2013-08-28 23:42:00,
2013-08-28 18:47:00,90.7,70.7,30.05,SE,124,4.0,12.0,52,0.00,,,0.00,meteohub,2013-08-28 23:47:00,
2013-08-28 18:52:00,90.7,70.0,30.05,SE,145,6.0,12.0,51,0.00,,,0.00,meteohub,2013-08-28 23:52:00,
2013-08-28 18:57:00,90.3,70.3,30.05,SSE,155,3.0,12.0,52,0.00,,,0.00,meteohub,2013-08-28 23:57:00,
2013-08-28 19:02:00,90.5,70.5,30.05,ESE,115,12.0,12.0,52,0.00,,,0.00,meteohub,2013-08-29 00:02:00,
2013-08-28 19:07:00,90.3,70.3,30.05,ESE,118,4.0,12.0,52,0.00,,,0.00,meteohub,2013-08-29 00:07:00,
2013-08-28 19:12:00,90.3,70.3,30.05,SE,129,6.0,12.0,52,0.00,,,0.00,meteohub,2013-08-29 00:12:00,
2013-08-28 19:17:00,90.1,70.2,30.05,East,94,3.0,12.0,52,0.00,,,0.00,meteohub,2013-08-29 00:17:00,
2013-08-28 19:22:00,90.1,70.7,30.05,SE,124,6.0,11.0,53,0.00,,,0.00,meteohub,2013-08-29 00:22:00,
2013-08-28 19:27:00,90.0,70.5,30.05,SSE,153,6.0,12.0,53,0.00,,,0.00,meteohub,2013-08-29 00:27:00,
2013-08-28 19:32:00,89.8,70.3,30.05,ESE,122,3.0,12.0,53,0.00,,,0.00,meteohub,2013-08-29 00:32:00,
2013-08-28 19:37:00,89.6,70.7,30.05,ESE,118,5.0,12.0,54,0.00,,,0.00,meteohub,2013-08-29 00:37:00,
2013-08-28 19:42:00,89.4,70.5,30.06,SE,136,8.0,11.0,54,0.00,,,0.00,meteohub,2013-08-29 00:42:00,
2013-08-28 19:47:00,89.2,70.3,30.06,ESE,113,6.0,10.0,54,0.00,,,0.00,meteohub,2013-08-29 00:47:00,
2013-08-28 19:52:00,89.2,70.9,30.06,SE,124,5.0,10.0,55,0.00,,,0.00,meteohub,2013-08-29 00:52:00,
2013-08-28 19:57:00,88.9,70.7,30.06,ESE,113,6.0,10.0,55,0.00,,,0.00,meteohub,2013-08-29 00:57:00,
2013-08-28 20:02:00,88.7,71.1,30.06,ESE,107,4.0,10.0,56,0.00,,,0.00,meteohub,2013-08-29 01:02:00,
2013-08-28 20:07:00,88.3,70.7,30.06,SE,124,9.0,11.0,56,0.00,,,0.00,meteohub,2013-08-29 01:07:00,
2013-08-28 20:12:00,88.2,71.1,30.06,ESE,113,10.0,13.0,57,0.00,,,0.00,meteohub,2013-08-29 01:12:00,
2013-08-28 20:17:00,88.0,71.4,30.06,ESE,110,7.0,13.0,58,0.00,,,0.00,meteohub,2013-08-29 01:17:00,
2013-08-28 20:22:00,87.6,71.6,30.06,SE,136,6.0,13.0,59,0.00,,,0.00,meteohub,2013-08-29 01:22:00,
2013-08-28 20:27:00,87.4,71.8,30.07,ESE,121,6.0,10.0,60,0.00,,,0.00,meteohub,2013-08-29 01:27:00,
2013-08-28 20:32:00,87.3,72.1,30.07,ESE,103,5.0,10.0,61,0.00,,,0.00,meteohub,2013-08-29 01:32:00,
2013-08-28 20:37:00,86.9,71.8,30.07,ESE,113,8.0,10.0,61,0.00,,,0.00,meteohub,2013-08-29 01:37:00,
2013-08-28 20:42:00,86.7,72.1,30.07,ESE,113,7.0,11.0,62,0.00,,,0.00,meteohub,2013-08-29 01:42:00,
2013-08-28 20:47:00,86.5,72.5,30.07,ESE,121,9.0,11.0,63,0.00,,,0.00,meteohub,2013-08-29 01:47:00,
2013-08-28 20:52:00,86.4,72.3,30.07,ESE,103,9.0,12.0,63,0.00,,,0.00,meteohub,2013-08-29 01:52:00,
2013-08-28 20:57:00,86.2,72.5,30.07,East,100,9.0,12.0,64,0.00,,,0.00,meteohub,2013-08-29 01:57:00,
2013-08-28 21:02:00,86.0,72.3,30.08,ESE,103,7.0,12.0,64,0.00,,,0.00,meteohub,2013-08-29 02:02:00,
2013-08-28 21:07:00,85.8,72.1,30.08,ESE,111,9.0,11.0,64,0.00,,,0.00,meteohub,2013-08-29 02:07:00,
2013-08-28 21:12:00,85.6,72.5,30.08,East,90,7.0,12.0,65,0.00,,,0.00,meteohub,2013-08-29 02:12:00,
2013-08-28 21:17:00,85.5,72.3,30.08,SE,124,7.0,12.0,65,0.00,,,0.00,meteohub,2013-08-29 02:17:00,
2013-08-28 21:22:00,85.3,72.1,30.08,ESE,105,9.0,12.0,65,0.00,,,0.00,meteohub,2013-08-29 02:22:00,
2013-08-28 21:27:00,85.1,72.5,30.08,ESE,110,6.0,12.0,66,0.00,,,0.00,meteohub,2013-08-29 02:27:00,
2013-08-28 21:32:00,84.9,72.3,30.08,ESE,113,6.0,12.0,66,0.00,,,0.00,meteohub,2013-08-29 02:32:00,
2013-08-28 21:37:00,84.7,72.5,30.08,SE,133,4.0,12.0,67,0.00,,,0.00,meteohub,2013-08-29 02:37:00,
2013-08-28 21:42:00,84.6,72.3,30.08,ESE,109,8.0,11.0,67,0.00,,,0.00,meteohub,2013-08-29 02:42:00,
2013-08-28 21:47:00,84.4,72.7,30.08,ESE,116,8.0,12.0,68,0.00,,,0.00,meteohub,2013-08-29 02:47:00,
2013-08-28 21:52:00,84.0,72.3,30.08,East,82,7.0,12.0,68,0.00,,,0.00,meteohub,2013-08-29 02:52:00,
2013-08-28 21:57:00,83.8,72.1,30.08,ESE,113,8.0,12.0,68,0.00,,,0.00,meteohub,2013-08-29 02:57:00,
2013-08-28 22:02:00,83.7,72.3,30.08,SSW,208,11.0,12.0,69,0.00,,,0.00,meteohub,2013-08-29 03:02:00,
2013-08-28 22:07:00,83.5,72.3,30.08,East,101,8.0,13.0,69,0.00,,,0.00,meteohub,2013-08-29 03:07:00,
2013-08-28 22:12:00,83.3,72.1,30.08,SE,138,3.0,13.0,69,0.00,,,0.00,meteohub,2013-08-29 03:12:00,
2013-08-28 22:17:00,83.1,72.3,30.09,SSE,152,6.0,13.0,70,0.00,,,0.00,meteohub,2013-08-29 03:17:00,
2013-08-28 22:22:00,82.9,72.1,30.09,SSE,148,5.0,10.0,70,0.00,,,0.00,meteohub,2013-08-29 03:22:00,
2013-08-28 22:27:00,82.9,72.1,30.09,South,183,3.0,10.0,70,0.00,,,0.00,meteohub,2013-08-29 03:27:00,
2013-08-28 22:32:00,82.8,72.0,30.09,ESE,113,5.0,10.0,70,0.00,,,0.00,meteohub,2013-08-29 03:32:00,
2013-08-28 22:37:00,82.8,72.0,30.09,ESE,118,8.0,10.0,70,0.00,,,0.00,meteohub,2013-08-29 03:37:00,
2013-08-28 22:42:00,82.8,72.0,30.09,SE,146,5.0,12.0,70,0.00,,,0.00,meteohub,2013-08-29 03:42:00,
2013-08-28 22:47:00,82.6,71.8,30.09,ESE,121,7.0,12.0,70,0.00,,,0.00,meteohub,2013-08-29 03:47:00,
2013-08-28 22:52:00,82.6,71.8,30.09,SE,127,6.0,12.0,70,0.00,,,0.00,meteohub,2013-08-29 03:52:00,
2013-08-28 22:57:00,82.6,71.8,30.09,SE,134,11.0,11.0,70,0.00,,,0.00,meteohub,2013-08-29 03:57:00,
2013-08-28 23:01:00,82.4,71.6,30.09,SSE,158,9.0,11.0,70,0.00,,,0.00,meteohub,2013-08-29 04:01:00,
2013-08-28 23:02:00,82.4,72.0,30.09,SE,145,3.0,11.0,71,0.00,,,0.00,meteohub,2013-08-29 04:02:00,
2013-08-28 23:07:00,82.2,72.0,30.09,SSW,197,4.0,12.0,71,0.00,,,0.00,meteohub,2013-08-29 04:07:00,
2013-08-28 23:12:00,82.0,71.8,30.09,SSE,160,2.0,13.0,71,0.00,,,0.00,meteohub,2013-08-29 04:12:00,
2013-08-28 23:17:00,82.0,72.1,30.09,SSE,159,3.0,13.0,72,0.00,,,0.00,meteohub,2013-08-29 04:17:00,
2013-08-28 23:22:00,81.9,72.0,30.09,ESE,118,8.0,10.0,72,0.00,,,0.00,meteohub,2013-08-29 04:22:00,
2013-08-28 23:27:00,81.9,72.0,30.09,ESE,115,7.0,11.0,72,0.00,,,0.00,meteohub,2013-08-29 04:27:00,
2013-08-28 23:32:00,81.9,71.6,30.09,SSE,152,6.0,11.0,71,0.00,,,0.00,meteohub,2013-08-29 04:32:00,
2013-08-28 23:37:00,82.0,71.8,30.09,SE,124,6.0,11.0,71,0.00,,,0.00,meteohub,2013-08-29 04:37:00,
2013-08-28 23:42:00,81.9,71.6,30.09,SSE,168,3.0,11.0,71,0.00,,,0.00,meteohub,2013-08-29 04:42:00,
2013-08-28 23:47:00,81.9,71.6,30.09,SSE,166,2.0,11.0,71,0.00,,,0.00,meteohub,2013-08-29 04:47:00,
2013-08-28 23:52:00,81.7,71.4,30.09,ESE,119,7.0,9.0,71,0.00,,,0.00,meteohub,2013-08-29 04:52:00,
2013-08-28 23:57:00,81.7,71.8,30.09,SE,135,5.0,10.0,72,0.00,,,0.00,meteohub,2013-08-29 04:57:00,